Weather Roundup
Issued by NWS

Home | Current Version | Previous Version | Graphics & Text | Print | Product List | Glossary Off
Versions: 1 2 3 4 5 6 7 8 9 10 11 12 13 14 15 16 17 18 19 20 21 22 23 24 25 26 27 28 29 30 31 32 33 34 35 36 37 38 39 40 41 42 43 44 45 46 47 48 49 50

856
NZUS93 KARX 281410
HRRWXR

CURRENT HOURLY OBSERVATIONS ACROSS
MUCH OF THE UPPER MISSISSIPPI VALLEY
NATIONAL WEATHER SERVICE LA CROSSE WI
900 AM CDT SAT MAY 28 2016


...SOUTHEAST MINNESOTA...


CITY           SKY/WX    TMP DP  RH WIND       PRES   REMARKS
ROCHESTER      CLOUDY    65  64  97 NE3       29.77S FOG
ROCHESTER/MAYO CLOUDY    64  64 100 SE3       29.77S
WINONA         CLOUDY    66  64  94 NW5       29.75R FOG
AUSTIN         DRIZZLE   64  63  94 CALM      29.76S
ALBERT LEA     RAIN      64  63  94 S6        29.76S
DODGE CENTER   CLOUDY    64  64 100 E6        29.77S FOG
PRESTON        CLOUDY    64  62  94 W3        29.77S
OWATONNA       CLOUDY    64  61  88 E6        29.76S FOG
FARIBAULT      CLOUDY    64  61  88 NE5       29.76F
$$

...ELSEWHERE IN MINNESOTA...


CITY           SKY/WX    TMP DP  RH WIND       PRES   REMARKS
MINNEAPOLIS    CLOUDY    62  58  86 NE6       29.76R
INTNL FALLS    CLOUDY    60  56  86 N8        29.84S
DULUTH         FOG       50  49  96 CALM      29.79R VSB 1/2
RED WING       CLOUDY    66  63  88 CALM      29.75S
REDWOOD FALLS  HVY RAIN  59  57  93 NE7       29.76S FOG
MANKATO        CLOUDY    63  59  88 E9        29.76R
WORTHINGTON    HVY RAIN  63  61  94 NE5       29.77R FOG
FAIRMONT       CLOUDY    66  63  88 S8        29.74S
$$

...SOUTHWEST WISCONSIN...


CITY           SKY/WX    TMP DP  RH WIND       PRES   REMARKS
LA CROSSE      CLOUDY    69  66  90 S5        29.73R
PRAIRIE DU CHI CLOUDY    67  64  91 S3        29.78R
BOSCOBEL       CLOUDY    70  65  84 S9        29.78R
LONE ROCK      CLOUDY    70  64  81 SW12      29.79R
PLATTEVILLE    CLOUDY    67  64  91 S17       29.82R
FORT MC COY    CLOUDY    66  66  98 SW3       29.75R
CAMP DOUGLAS   CLOUDY    68  68 100 S16       29.74R
MAUSTON-NEW LI CLOUDY    70  66  88 S10       29.74R
VIROQUA        CLOUDY    67  67 100 S9        29.77R
WIS DELLS      CLOUDY    68  64  85 S9G17     29.77S
$$

...ELSEWHERE IN WISCONSIN...


CITY           SKY/WX    TMP DP  RH WIND       PRES   REMARKS
MILWAUKEE      CLOUDY    73  66  78 S15       29.85R
MADISON        CLOUDY    71  63  75 S17       29.80R
GREEN BAY      CLOUDY    72  66  81 S13       29.80S
EAU CLAIRE     CLOUDY    66  62  87 NW3       29.75R
BLACK RVR FLS  CLOUDY    68  68  98 CALM      29.73R
MEDFORD        DRIZZLE   66  66 100 CALM      29.76S
WAUSAU         CLOUDY    70  65  84 S9        29.76R
WIS RAPIDS     CLOUDY    68  65  90 S8        29.76S
MARSHFIELD     CLOUDY    69  65  86 SE8       29.74F
RICE LAKE      CLOUDY    62  59  89 CALM      29.78R
$$

...NORTHEAST IOWA...


CITY           SKY/WX    TMP DP  RH WIND       PRES   REMARKS
WATERLOO       CLOUDY    65  62  90 S6        29.79R
DUBUQUE        CLOUDY    65  63  93 S14       29.82R
DECORAH        CLOUDY    66  66 100 SW9G15    29.77R FOG
MASON CITY     LGT RAIN  63  62  97 CALM      29.78S FOG
CHARLES CITY   CLOUDY    68  68 100 S15       29.78R
OELWEIN        CLOUDY    66  64  94 S13       29.81R
$$

...ELSEWHERE IN IOWA...


CITY           SKY/WX    TMP DP  RH WIND       PRES   REMARKS
DES MOINES     PTSUNNY   67  63  87 S7        29.77S
IOWA CITY      CLOUDY    67  65  93 S7        29.83R
FORT DODGE     CLOUDY    64  59  82 S3        29.77R
MARSHALLTOWN   CLOUDY    65  63  93 S8        29.78R
CEDAR RAPIDS   CLOUDY    66  65  96 S8        29.80R
$$

...NORTHERN ILLINOIS...


CITY           SKY/WX    TMP DP  RH WIND       PRES   REMARKS
CHICAGO-OHARE  CLOUDY    72  65  78 S17       29.89R
CHICAGO-MIDWAY CLOUDY    74  64  71 S16G26    29.90R
MOLINE         CLOUDY    74  66  76 S13       29.83R
ROCKFORD       CLOUDY    72  66  81 S15G24    29.88R
PEORIA         CLOUDY    72  65  78 S16       29.89R
$$

NOTE: "FAIR" INDICATES FEW OR NO CLOUDS BELOW 12,000 FEET WITH NO
SIGNIFICANT WEATHER AND/OR OBSTRUCTIONS TO VISIBILITY. WIND
SPEEDS ARE IN MILES-PER-HOUR.




USA.gov is the U.S. government's official web portal to all federal, state and local government web resources and services.